User: anonymous   Login
Location: Newark
(25.3833°N, 97.4000°E)
Time: 03:21:08
(UTC+00:00)
Language:

METEOR M2 - Orbit

View from above orbital plane
View from above orbital plane
View from above satellite
View from above satellite

Ground track
Ground track

The orbit data is extracted from the following two-line orbital elements,

1 40069U 14037A   20058.75826625 -.00000022 +00000-0 +93568-5 0  9991
2 40069 098.5188 100.3967 0004593 237.3172 122.7557 14.20670357292492
Epoch (UTC): 27 February 2020 18:11:54
Eccentricity: 0.0004593
inclination: 98.5188°
perigee height: 820 km
apogee height: 826 km
right ascension of ascending node: 100.3967°
argument of perigee: 237.3172°
revolutions per day: 14.20670357
mean anomaly at epoch: 122.7557°
orbit number at epoch: 29249

The dashed part of the orbit path shows where the satellite is in the earth's shadow,  

DLR